Regional Weather Roundup
Issued by NWS Upton, NY

Current Version | Previous Version | Text Only | Print | Product List | Glossary On
Versions: 1 2 3 4 5 6 7 8 9 10 11 12 13 14 15 16 17 18 19 20 21 22 23 24 25 26 27 28 29 30 31 32 33 34 35 36 37 38 39 40 41 42 43 44 45 46 47 48 49 50
000
ASUS41 KOKX 190408
RWROKX

REGIONAL WEATHER ROUNDUP
NATIONAL WEATHER SERVICE NEW YORK NY
1100 PM EST SAT NOV 18 2017

NOTE: "FAIR" INDICATES FEW OR NO CLOUDS BELOW 12,000 FEET WITH NO
SIGNIFICANT WEATHER AND/OR OBSTRUCTIONS TO VISIBILITY.

NYZ071-072-176-178-NJZ106-104-190500-
NEW YORK CITY METRO AREA

CITY           SKY/WX    TMP DP  RH WIND       PRES   REMARKS
Central Park   MOCLDY    54  48  80 VRB6      29.46F
Bronx Bot Gard   N/A     50  48  93 SE6       29.44F
LaGuardia APRT CLOUDY    55  50  83 S8        29.44F
Kennedy INTL   CLOUDY    56  54  93 S23G30    29.46F
Breezy Point     N/A     54 N/A N/A S13         N/A
Newark/Liberty CLOUDY    52  48  86 S6        29.43F
Teterboro      LGT RAIN  53  48  83 S8        29.42F
$$

NYZ177-179-078>081-190500-
LONG ISLAND NEW YORK

CITY           SKY/WX    TMP DP  RH WIND       PRES   REMARKS
Jones Beach      N/A     57 N/A N/A S20G30      N/A
Matinecock PT    N/A     55 N/A N/A S12G18      N/A
Farmingdale    MOCLDY    57  53  86 S17G26    29.47F
MacArthur/ISP  CLOUDY    57  54  89 S13G23    29.48F
Shirley        CLOUDY    57  55  93 S13       29.50F
Mt Sinai Harb    N/A    N/A N/A N/A S9G16       N/A
Westhampton    LGT RAIN  58  53  84 S14G24    29.52F
East Hampton   CLOUDY    57  53  88 S9G16     29.52F
Southold       NOT AVBL
Montauk        NOT AVBL
$$

NYZ052-065-067-190500-
HUDSON VALLEY

CITY           SKY/WX    TMP DP  RH WIND       PRES   REMARKS
White Plains   LGT RAIN  47  46  97 SE3       29.44F
Larchmont Harb   N/A     52 N/A N/A SW3         N/A
Croton On Huds   N/A     48 N/A N/A MISG        N/A
Newburgh       CLOUDY    46  45  93 VRB5      29.44F
Montgomery     CLOUDY    40  39  97 CALM      29.41F FOG
Poughkeepsie   CLOUDY    46  42  86 SE5       29.42F
Albany         LGT RAIN  45  40  82 S15G28    29.36F
$$

NJZ001-105-106-008-010-013-015-019>022-104-190500-
NEW JERSEY

CITY           SKY/WX    TMP DP  RH WIND       PRES   REMARKS
Newark/Liberty CLOUDY    52  48  86 S6        29.43F
Teterboro      LGT RAIN  53  48  83 S8        29.42F
Caldwell       CLOUDY    43  43 100 CALM      29.43F FOG
Somerville     CLOUDY    43  43 100 CALM      29.41F FOG
Linden         FAIR      49  46  89 CALM      29.43F
Perth Amboy      N/A     54 N/A N/A S12         N/A
Sussex         CLOUDY    40  40 100 CALM      29.40F FOG
Andover        NOT AVBL
Trenton        CLOUDY    51  47  86 S8        29.41F
Millville      CLOUDY    62  52  69 S12G25    29.46F
Atlantic City  CLOUDY    60  53  77 S15G31    29.48F
Wrightstown    CLOUDY    58  49  74 SW18G25   29.41F
Toms River     CLOUDY    59  51  75 S14G21    29.46F
Belmar         CLOUDY    57  51  80 S13G20    29.45F
$$

PAZ047>061-062-071-190500-
EASTERN PENNSYLVANIA

CITY           SKY/WX    TMP DP  RH WIND       PRES   REMARKS
Philadelphia   CLOUDY    60  49  66 S20G28    29.43F
Allentown      MOCLDY    45  41  86 N3        29.41F
Scranton       RAIN      48  44  86 S13G23    29.35F FOG
$$

CTZ002-004>006-009-010-012-RIZ004-006-007-MAZ004-011-015-190500-
SOUTHERN NEW ENGLAND
 IN CT

CITY           SKY/WX    TMP DP  RH WIND       PRES   REMARKS
Bradley INTL   LGT RAIN  37  36  96 CALM      29.49F
Hartford       CLOUDY    41  39  93 CALM      29.49F
Danbury        CLOUDY    48  46  93 SE7       29.46F
Wtrbury/Oxford LGT RAIN  48  46  93 S13G20    29.46F
Norwalk Harbor   N/A     54 N/A N/A S10G16      N/A
Bridgeport     CLOUDY    55  51  86 S10       29.47F
Meriden        LGT RAIN  48  47  96 S3        29.48F
New Haven      CLOUDY    53  49  86 CALM      29.48F
Chester        CLOUDY    52  50  93 S6        29.50F
Groton         CLOUDY    54  51  90 S13       29.52F
Wilimantic     LGT RAIN  51  47  86 S5        29.51F

 IN RI

CITY           SKY/WX    TMP DP  RH WIND       PRES   REMARKS
Providence     LGT RAIN  54  52  93 SW14      29.53F
Block Island   CLOUDY    56  54  93 SW8       29.55F
Westerly       LGT RAIN  54  53  97 S7        29.54F
 IN MA

CITY           SKY/WX    TMP DP  RH WIND       PRES   REMARKS
Boston         CLOUDY    49  47  93 S8        29.51F
Worcester      LGT RAIN  45  42  89 SW16      29.48F
Westfield      LGT RAIN  35  35 100 CALM      29.48F
Provincetown   CLOUDY    55  52  89 SW16      29.54F
Nantucket      LGT RAIN  57  56  96 S15       29.60F
$$

ANZ330-335-338-340-345-350-353-355-190500-
COASTAL MARINE OBSERVATIONS


STATION/POSITION TIME  SKY/WX   TEMP    WIND        PRES    VSBY  WAVE
                                AIR SEA DIR/SP/G                  HT/PER
                 (UTC)          (F)     (DEG/KT/KT) (MB)    (MI)  (FT/S)
NY HARB ENTRANCE 0350            60 59  200/ 27/ 35  996.3          6/ 6
20 S FIRE ISLAND 0250            60 58  210/ 23/ 29 1000.1          9/ 8
GREAT SOUTH BAY  0315            55 46  210/ 16/ 19   N/A
HUDSON CANYON    0350            64 60  210/ 29/ 35 1000.5         13/ 9
KINGS POINT      NOT AVBL
EXECUTION ROCKS  0330            54     170/ 10/ 16   N/A
WESTERN LI SOUND 0249            54     200/ 10/ 14   N/A           1
CENTRAL LI SOUND NOT AVBL
ROBBINS REEF     NOT AVBL
$$


>>>>>>>>>>>>>>>>>>>>>>>>>>>> KEY <<<<<<<<<<<<<<<<<<<<<<<<<<<
>                                                          <
>     SKY/WX - Sky Condition/Present Weather               <
>     TMP    - Temperature in Fahrenheit                   <
>     DP     - Dew Point in Fahrenheit                     <
>     RH     - Relative Humidity in Percent                <
>     WIND   - Direction (from) and Speed in MPH           <
>     PRES   - Mean Sea Level Pressure (inches of Hg)      <
>     WCI    - Wind Chill Index                            <
>     VSB    - VISIBILITY IN MILES                         <
>     HX     - HEAT INDEX                                  <
>     TC     - TEMPERATURE IN CELSIUS                      <
>     VRB    - VARIABLE WIND DIRECTION                     <
>                                                          <
>>>>>>>>>>>>>>>>>>>>>>>>>>>> KEY <<<<<<<<<<<<<<<<<<<<<<<<<<<



USA.gov is the U.S. government's official web portal to all federal, state and local government web resources and services.